Flag for Ireland Weather past 2 weeks in Dublin, Ireland

Now
57 °F

Passing clouds.


Feels Like: 57 °F
Forecast: 56 / 66 °F
Wind: 1 mph from North

Location: Dublin Airport

Current Time: Sep 16, 2014 at 10:56:26 PM

Latest Report: Sep 16, 2014 at 10:30 PM


Visibility: 4 mi

Pressure: 29.95 "Hg

Humidity: 94%

Dew point: 55 °F

Location of DublinLocation

Historic Weather in Dublin — Graph

°F

Dublin temperature yesterday

Maximum temperature yesterday: 63 °F (at 12:30 PM)
Minimum temperature yesterday: 55 °F (at 5:30 AM)
Average temperature yesterday: 58 °F

Past Weeks' High & Low Weather Summary

 TemperatureHumidityPressure
High72 °F (Sep 4, 2:00 PM)100% (Sep 2, 9:30 PM)30.33 "Hg (Sep 2, 9:30 PM)
Low39 °F (Sep 8, 2:00 AM)55% (Sep 8, 2:00 PM)29.95 "Hg (Sep 16, 2:00 PM)
Average56 °F86%30.15 "Hg
* Reported Sep 1 9:00 PM — Sep 16 9:30 PM, Dublin, Weather by CustomWeather, © 2014

Note: Actual official high and low records may vary slightly from our data, if they occured in-between our weather recording intervals... More about our weather records

Advertising

Dublin weather history for previous 24 hours

 ConditionsComfort  
Time TempWeatherWind HumidityBarometerVisibility
9:30 PM
Sep 16
55 °FPartly cloudy.6 mph100%29.95 "Hg4 mi
9:00 PM57 °FPassing clouds.8 mph94%29.95 "Hg4 mi
8:30 PM57 °FScattered clouds.5 mph94%29.95 "Hg4 mi
8:00 PM59 °FFog.8 mph94%29.95 "Hg3 mi
7:30 PM59 °FFog.7 mph94%29.95 "Hg3 mi
7:00 PM59 °FFog.8 mph94%29.95 "Hg3 mi
6:30 PM61 °FFog.10 mph88%29.95 "Hg3 mi
6:00 PM61 °FPartly sunny.12 mph88%29.95 "Hg5 mi
5:30 PM61 °FPartly sunny.10 mph88%29.95 "Hg6 mi
5:00 PM63 °FScattered clouds.10 mph88%29.95 "Hg6 mi
4:30 PM63 °FScattered clouds.9 mph83%29.95 "Hg6 mi
4:00 PM63 °FBroken clouds.8 mph83%29.95 "Hg6 mi
3:30 PM63 °FBroken clouds.10 mph83%29.95 "Hg5 mi
3:00 PM63 °FBroken clouds.12 mph88%29.95 "Hg5 mi
2:30 PM64 °FBroken clouds.10 mph83%29.95 "Hg5 mi
2:00 PM64 °FBroken clouds.10 mph83%29.95 "Hg4 mi
1:30 PM64 °FBroken clouds.9 mph83%29.98 "Hg6 mi
1:00 PM64 °FBroken clouds.8 mph83%29.98 "Hg6 mi
12:30 PM64 °FBroken clouds.7 mph83%29.98 "Hg6 mi
12:00 PM63 °FBroken clouds.7 mph83%29.98 "Hg6 mi
11:30 AM61 °FBroken clouds.7 mph94%29.98 "Hg4 mi
11:00 AM61 °FBroken clouds.9 mph88%29.98 "Hg6 mi
10:30 AM61 °FBroken clouds.7 mph88%29.98 "Hg6 mi
10:00 AM59 °FBroken clouds.8 mph94%29.98 "Hg6 mi
9:30 AM59 °FBroken clouds.8 mph94%30.01 "Hg5 mi
9:00 AM57 °FFog.6 mph100%29.98 "Hg2 mi
8:30 AM57 °FFog.5 mph100%29.98 "Hg2 mi
8:00 AM57 °FFog.6 mph100%29.98 "Hg1 mi
7:30 AM57 °FFog.7 mph100%29.98 "Hg1 mi
7:00 AM57 °FFog.7 mph100%29.98 "Hg1 mi
6:30 AM57 °FFog.6 mph100%29.98 "Hg2 mi
6:00 AM57 °FFog.5 mph100%29.98 "Hg2 mi
5:30 AM57 °FFog.6 mph94%29.98 "Hg2 mi
5:00 AM57 °FFog.5 mph94%29.98 "Hg2 mi
4:30 AM57 °FFog.6 mph94%30.01 "Hg2 mi
4:00 AM55 °FFog.6 mph100%30.01 "Hg2 mi
3:30 AM57 °FFog.6 mph94%30.01 "Hg2 mi
3:00 AM55 °FFog.5 mph100%30.01 "Hg2 mi
2:00 AM55 °FFog.3 mph100%30.01 "Hg3 mi
1:30 AM55 °FPassing clouds.5 mph100%30.01 "Hg4 mi
1:00 AM55 °FPassing clouds.5 mph100%30.04 "Hg4 mi
12:30 AM55 °FPartly cloudy.5 mph100%30.04 "HgN/A
12:00 AM57 °FPassing clouds.6 mph94%30.04 "HgN/A
11:30 PM
Sep 15
57 °FPassing clouds.7 mph94%30.04 "HgN/A
11:00 PM57 °FPassing clouds.7 mph94%30.04 "HgN/A
10:30 PM55 °FPassing clouds.6 mph100%30.04 "HgN/A
10:00 PM55 °FPassing clouds.6 mph94%30.04 "HgN/A
Weather by CustomWeather, © 2014

See weather overviewHow to use our weather pages